| time (UTC) | temp F | wind direction | speed knots | gust knots | rain 1hr in | rain 24hr in | rain mn in | humidity % | barometer mb |
| 20260504204953 | 74 | 179 | 1.7 | 0.0 | 0.01 | 0.55 | 0.06 | 50 | 1010.2 |
| 20260504204537 | 73 | 197 | 2.6 | 1.7 | 0.02 | 0.55 | 0.06 | 50 | 1010.2 |
| 20260504204454 | 73 | 197 | 2.6 | 1.7 | 0.02 | 0.55 | 0.06 | 50 | 1010.2 |
| 20260504203950 | 73 | 259 | 0.9 | 1.7 | 0.02 | 0.55 | 0.06 | 50 | 1010.2 |
| 20260504203451 | 73 | 139 | 1.7 | 1.7 | 0.02 | 0.55 | 0.06 | 51 | 1010.2 |
| 20260504203147 | 73 | 181 | 0.9 | 0.9 | 0.02 | 0.55 | 0.06 | 52 | 1010.3 |
| 20260504202952 | 74 | 274 | 0.9 | 1.7 | 0.02 | 0.55 | 0.06 | 52 | 1010.2 |
| 20260504202448 | 74 | 235 | 2.6 | 1.7 | 0.02 | 0.55 | 0.06 | 51 | 1010.1 |
| 20260504201949 | 73 | 153 | 1.7 | 0.0 | 0.02 | 0.55 | 0.06 | 51 | 1010.2 |
| 20260504201450 | 73 | 236 | 2.6 | 2.6 | 0.02 | 0.55 | 0.06 | 51 | 1010.1 |
| 20260504200942 | 73 | 167 | 2.6 | 0.9 | 0.02 | 0.55 | 0.06 | 52 | 1010.2 |
| 20260504200521 | 73 | 181 | 0.9 | 0.9 | 0.02 | 0.55 | 0.06 | 52 | 1010.3 |
| 20260504200442 | 73 | 181 | 0.9 | 0.9 | 0.02 | 0.55 | 0.06 | 52 | 1010.3 |
| 20260504200126 | 75 | 167 | 1.7 | 2.6 | 0.00 | 0.55 | 0.04 | 49 | 1010.4 |
| 20260504195943 | 73 | 118 | 0.0 | 0.0 | 0.02 | 0.55 | 0.06 | 51 | 1010.3 |
| 20260504195438 | 74 | 113 | 0.9 | 2.6 | 0.02 | 0.55 | 0.05 | 51 | 1010.4 |
| 20260504194939 | 74 | 218 | 1.7 | 0.0 | 0.00 | 0.55 | 0.05 | 51 | 1010.6 |
| 20260504194636 | 75 | 100 | 0.9 | 2.6 | 0.00 | 0.55 | 0.05 | 50 | 1010.6 |
| 20260504194440 | 75 | 100 | 0.9 | 2.6 | 0.00 | 0.55 | 0.05 | 50 | 1010.6 |
| 20260504194015 | 75 | 104 | 1.7 | 0.0 | 0.00 | 0.55 | 0.04 | 49 | 1010.4 |
| 20260504193936 | 75 | 104 | 1.7 | 0.0 | 0.00 | 0.55 | 0.04 | 49 | 1010.4 |
| 20260504193514 | 75 | 167 | 1.7 | 2.6 | 0.00 | 0.55 | 0.04 | 49 | 1010.4 |
| 20260504193436 | 75 | 167 | 1.7 | 2.6 | 0.00 | 0.55 | 0.04 | 49 | 1010.4 |
| 20260504192936 | 75 | 111 | 1.7 | 0.0 | 0.00 | 0.55 | 0.04 | 48 | 1010.6 |
| 20260504192928 | 77 | 263 | 1.7 | 2.6 | 0.00 | 0.55 | 0.03 | 40 | 1010.8 |
| 20260504192538 | 76 | 163 | 0.9 | 0.0 | 0.00 | 0.55 | 0.04 | 47 | 1010.5 |
| 20260504192506 | 76 | 163 | 0.9 | 0.0 | 0.00 | 0.55 | 0.04 | 47 | 1010.5 |
| 20260504192418 | 76 | 163 | 0.9 | 0.0 | 0.00 | 0.55 | 0.04 | 47 | 1010.5 |
| 20260504191450 | 77 | 259 | 0.0 | 5.2 | 0.00 | 0.55 | 0.04 | 45 | 1010.7 |
| 20260504191416 | 77 | 259 | 0.0 | 5.2 | 0.00 | 0.55 | 0.04 | 45 | 1010.7 |
| 20260504190415 | 77 | 263 | 1.7 | 2.6 | 0.00 | 0.55 | 0.03 | 40 | 1010.8 |
| 20260504185443 | 79 | 228 | 2.6 | 0.9 | 0.00 | 0.55 | 0.03 | 44 | 1010.9 |
| 20260504185411 | 79 | 228 | 2.6 | 0.9 | 0.00 | 0.55 | 0.03 | 44 | 1010.9 |
| 20260504184946 | 80 | 218 | 1.7 | 2.6 | 0.00 | 0.55 | 0.03 | 40 | 1011.0 |
| 20260504184911 | 80 | 218 | 1.7 | 2.6 | 0.00 | 0.55 | 0.03 | 40 | 1011.0 |
| 20260504184444 | 80 | 235 | 0.0 | 6.1 | 0.00 | 0.55 | 0.03 | 33 | 1011.1 |
| 20260504184411 | 80 | 235 | 0.0 | 6.1 | 0.00 | 0.55 | 0.03 | 33 | 1011.1 |
| 20260504183908 | 80 | 266 | 0.0 | 0.0 | 0.00 | 0.55 | 0.03 | 33 | 1011.1 |
| 20260504183409 | 80 | 176 | 1.7 | 0.0 | 0.00 | 0.55 | 0.03 | 33 | 1011.2 |
| 20260504182910 | 80 | 329 | 0.9 | 1.7 | 0.00 | 0.55 | 0.03 | 33 | 1011.2 |
| 20260504182529 | 80 | 158 | 0.0 | 2.6 | 0.00 | 0.55 | 0.03 | 33 | 1011.4 |
| 20260504182516 | 79 | 329 | 0.9 | 0.9 | 0.00 | 0.55 | 0.03 | 34 | 1011.5 |
| 20260504182440 | 80 | 194 | 0.0 | 0.0 | 0.00 | 0.55 | 0.03 | 33 | 1011.3 |
| 20260504182407 | 80 | 194 | 0.0 | 0.0 | 0.00 | 0.55 | 0.03 | 33 | 1011.3 |
| 20260504181908 | 80 | 201 | 2.6 | 1.7 | 0.00 | 0.55 | 0.03 | 33 | 1011.3 |
| 20260504181455 | 80 | 271 | 0.9 | 2.6 | 0.00 | 0.55 | 0.03 | 33 | 1011.3 |
| 20260504181408 | 80 | 271 | 0.9 | 2.6 | 0.00 | 0.55 | 0.03 | 33 | 1011.3 |
| 20260504180904 | 80 | 204 | 2.6 | 2.6 | 0.00 | 0.55 | 0.03 | 32 | 1011.4 |
| 20260504180446 | 80 | 158 | 0.0 | 2.6 | 0.00 | 0.55 | 0.03 | 33 | 1011.4 |
| 20260504180405 | 80 | 158 | 0.0 | 2.6 | 0.00 | 0.55 | 0.03 | 33 | 1011.4 |
| 20260504175402 | 79 | 329 | 0.9 | 0.9 | 0.00 | 0.55 | 0.03 | 34 | 1011.5 |
| 20260504175326 | 79 | 277 | 0.0 | 0.0 | 0.01 | 0.55 | 0.03 | 34 | 1011.8 |
| 20260504174902 | 79 | 359 | 0.9 | 0.0 | 0.01 | 0.55 | 0.03 | 34 | 1011.7 |
| 20260504174510 | 79 | 287 | 0.9 | 0.9 | 0.01 | 0.55 | 0.03 | 34 | 1011.7 |
| 20260504174403 | 79 | 287 | 0.9 | 0.9 | 0.01 | 0.55 | 0.03 | 34 | 1011.7 |
| 20260504173436 | 79 | 235 | 2.6 | 2.6 | 0.01 | 0.55 | 0.03 | 34 | 1011.9 |
| 20260504173400 | 79 | 235 | 2.6 | 2.6 | 0.01 | 0.55 | 0.03 | 34 | 1011.9 |
| 20260504172900 | 79 | 277 | 0.0 | 0.0 | 0.01 | 0.55 | 0.03 | 34 | 1011.8 |
| 20260504172357 | 79 | 302 | 0.0 | 2.6 | 0.01 | 0.55 | 0.03 | 35 | 1011.9 |
| 20260504172126 | 77 | 190 | 0.9 | 1.7 | 0.01 | 0.55 | 0.03 | 36 | 1012.2 |
| 20260504172118 | 77 | 215 | 0.0 | 4.3 | 0.01 | 0.55 | 0.03 | 37 | 1012.2 |
| 20260504171858 | 79 | 218 | 0.0 | 1.7 | 0.01 | 0.55 | 0.03 | 35 | 1012.0 |
| 20260504171359 | 78 | 203 | 0.0 | 0.0 | 0.01 | 0.55 | 0.03 | 36 | 1012.1 |
| 20260504170855 | 78 | 297 | 0.0 | 0.0 | 0.01 | 0.55 | 0.03 | 36 | 1012.1 |
| 20260504170441 | 78 | 203 | 0.9 | 0.0 | 0.01 | 0.55 | 0.03 | 36 | 1012.2 |
| 20260504170356 | 78 | 203 | 0.9 | 0.0 | 0.01 | 0.55 | 0.03 | 36 | 1012.2 |
| 20260504160349 | 74 | 162 | 0.0 | 0.0 | 0.00 | 0.55 | 0.02 | 41 | 1012.8 |
| 20260504150915 | 68 | 225 | 0.9 | 0.9 | 0.00 | 0.55 | 0.02 | 48 | 1013.2 |
| 20260504150913 | 68 | 212 | 2.6 | 1.7 | 0.00 | 0.55 | 0.02 | 49 | 1013.3 |
| 20260504150842 | 68 | 225 | 0.9 | 0.9 | 0.00 | 0.55 | 0.02 | 48 | 1013.2 |
| 20260504150735 | 68 | 212 | 2.6 | 1.7 | 0.00 | 0.55 | 0.02 | 49 | 1013.3 |
| 20260504150343 | 68 | 212 | 2.6 | 1.7 | 0.00 | 0.55 | 0.02 | 49 | 1013.3 |
| 20260504140939 | 66 | 336 | 1.7 | 0.0 | 0.01 | 0.55 | 0.02 | 49 | 1013.6 |
| 20260504140913 | 63 | 233 | 3.5 | 1.7 | 0.00 | 0.55 | 0.02 | 54 | 1013.9 |
| 20260504140837 | 66 | 336 | 1.7 | 0.0 | 0.01 | 0.55 | 0.02 | 49 | 1013.6 |
| 20260504140338 | 65 | 204 | 1.7 | 0.0 | 0.01 | 0.55 | 0.02 | 50 | 1013.6 |
| 20260504130525 | 60 | 83 | 1.7 | 0.0 | 0.00 | 0.55 | 0.01 | 61 | 1014.3 |
| 20260504130518 | 60 | 231 | 0.9 | 2.6 | 0.00 | 0.55 | 0.01 | 62 | 1014.4 |
| 20260504130508 | 60 | 277 | 0.9 | 0.0 | 0.00 | 0.55 | 0.01 | 63 | 1014.4 |
| 20260504130334 | 61 | 201 | 1.7 | 2.6 | 0.00 | 0.55 | 0.01 | 59 | 1014.1 |
| 20260504120308 | 60 | 287 | 2.6 | 1.7 | 0.00 | 0.55 | 0.01 | 65 | 1014.6 |
| 20260504120123 | 61 | 284 | 2.6 | 6.1 | 0.00 | 0.55 | 0.01 | 64 | 1014.8 |
| 20260504120119 | 61 | 188 | 0.9 | 0.9 | 0.00 | 0.55 | 0.01 | 65 | 1014.8 |
| 20260504120114 | 61 | 294 | 1.7 | 2.6 | 0.00 | 0.55 | 0.01 | 64 | 1014.8 |
| 20260504110349 | 55 | 243 | 1.7 | 1.7 | 0.00 | 0.55 | 0.01 | 73 | 1015.1 |
| 20260504110303 | 55 | 243 | 1.7 | 1.7 | 0.00 | 0.55 | 0.01 | 73 | 1015.1 |
| 20260504100300 | 48 | 217 | 0.9 | 0.9 | 0.00 | 0.55 | 0.01 | 77 | 1014.8 |
| 20260504081748 | 49 | 283 | 1.7 | 0.9 | 0.00 | 0.55 | 0.01 | 71 | 1014.8 |
| 20260504081711 | 49 | 311 | 0.0 | 0.9 | 0.00 | 0.55 | 0.01 | 71 | 1014.7 |
| 20260504081707 | 49 | 153 | 0.9 | 0.9 | 0.00 | 0.55 | 0.01 | 70 | 1014.6 |
| 20260504081250 | 49 | 311 | 0.0 | 0.9 | 0.00 | 0.55 | 0.01 | 71 | 1014.7 |
| 20260504080746 | 49 | 153 | 0.9 | 0.9 | 0.00 | 0.55 | 0.01 | 70 | 1014.6 |
| 20260504080240 | 49 | 229 | 0.9 | 1.7 | 0.00 | 0.55 | 0.01 | 70 | 1014.5 |
| 20260504080236 | 49 | 219 | 0.9 | 0.0 | 0.00 | 0.55 | 0.01 | 69 | 1014.5 |
| 20260504070333 | 49 | 197 | 0.0 | 0.0 | 0.01 | 0.55 | 0.01 | 67 | 1014.1 |
| 20260504070230 | 49 | 197 | 0.0 | 0.0 | 0.01 | 0.55 | 0.01 | 67 | 1014.1 |
| 20260504060226 | 50 | 264 | 0.0 | 0.0 | 0.00 | 0.55 | 0.01 | 63 | 1014.1 |
| 20260504050510 | 51 | 262 | 0.0 | 0.0 | 0.15 | 0.04 | 0.55 | 59 | 1013.8 |
| 20260504050501 | 51 | 260 | 0.0 | 0.0 | 0.15 | 0.04 | 0.55 | 59 | 1013.7 |
| 20260504050222 | 51 | 180 | 0.9 | 0.0 | 0.00 | 0.55 | 0.00 | 60 | 1014.0 |
| 20260504045723 | 51 | 183 | 0.0 | 0.0 | 0.00 | 0.55 | 0.00 | 60 | 1014.0 |
| 20260504045555 | 51 | 183 | 0.0 | 0.0 | 0.00 | 0.55 | 0.00 | 60 | 1013.9 |
| 20260504045220 | 51 | 183 | 0.0 | 0.0 | 0.00 | 0.55 | 0.00 | 60 | 1013.9 |
| 20260504044756 | 51 | 262 | 0.0 | 0.0 | 0.15 | 0.04 | 0.55 | 59 | 1013.9 |
| 20260504044721 | 51 | 262 | 0.0 | 0.0 | 0.15 | 0.04 | 0.55 | 59 | 1013.9 |
| 20260504044321 | 51 | 262 | 0.0 | 0.0 | 0.15 | 0.04 | 0.55 | 59 | 1013.8 |
| 20260504044222 | 51 | 262 | 0.0 | 0.0 | 0.15 | 0.04 | 0.55 | 59 | 1013.8 |
| 20260504043719 | 51 | 260 | 0.0 | 0.0 | 0.15 | 0.04 | 0.55 | 59 | 1013.7 |
| 20260504043619 | 51 | 280 | 0.0 | 0.0 | 0.15 | 0.04 | 0.55 | 58 | 1013.7 |
| 20260504043220 | 51 | 280 | 0.0 | 0.0 | 0.15 | 0.04 | 0.55 | 58 | 1013.7 |
| 20260504042722 | 51 | 280 | 0.0 | 0.0 | 0.15 | 0.04 | 0.55 | 58 | 1013.7 |
| 20260504042219 | 51 | 238 | 0.0 | 0.0 | 0.15 | 0.04 | 0.55 | 58 | 1013.8 |
| 20260504041720 | 52 | 238 | 0.0 | 0.9 | 0.15 | 0.04 | 0.55 | 58 | 1013.7 |
| 20260504041221 | 52 | 198 | 0.0 | 0.0 | 0.15 | 0.04 | 0.55 | 58 | 1013.7 |
| 20260504040718 | 52 | 195 | 0.0 | 0.0 | 0.15 | 0.04 | 0.55 | 57 | 1013.6 |
| 20260504040219 | 52 | 195 | 0.0 | 0.0 | 0.15 | 0.04 | 0.55 | 57 | 1013.5 |
| 20260504040109 | 52 | 270 | 0.0 | 0.0 | 0.07 | 0.04 | 0.50 | 56 | 1013.4 |
| 20260504035719 | 52 | 195 | 0.0 | 0.0 | 0.15 | 0.04 | 0.55 | 57 | 1013.5 |
| 20260504035216 | 52 | 195 | 0.0 | 0.0 | 0.15 | 0.04 | 0.55 | 57 | 1013.5 |
| 20260504034717 | 52 | 195 | 0.0 | 0.0 | 0.07 | 0.04 | 0.54 | 57 | 1013.5 |
| 20260504034218 | 52 | 229 | 0.0 | 0.0 | 0.07 | 0.04 | 0.53 | 57 | 1013.4 |
| 20260504033715 | 52 | 270 | 0.0 | 0.0 | 0.07 | 0.04 | 0.50 | 56 | 1013.4 |
| 20260504033216 | 52 | 252 | 0.0 | 0.0 | 0.07 | 0.04 | 0.49 | 57 | 1013.4 |
| 20260504032717 | 53 | 252 | 0.0 | 0.0 | 0.07 | 0.04 | 0.48 | 56 | 1013.4 |
| 20260504032214 | 53 | 252 | 0.0 | 0.0 | 0.07 | 0.04 | 0.46 | 56 | 1013.4 |
| 20260504031715 | 53 | 252 | 0.0 | 0.0 | 0.07 | 0.04 | 0.45 | 56 | 1013.4 |
| 20260504031216 | 53 | 252 | 0.0 | 0.0 | 0.07 | 0.04 | 0.45 | 56 | 1013.4 |
| 20260504030713 | 53 | 267 | 0.0 | 0.0 | 0.07 | 0.04 | 0.43 | 56 | 1013.4 |
| 20260504030214 | 53 | 248 | 0.0 | 0.0 | 0.07 | 0.04 | 0.42 | 56 | 1013.3 |
| 20260504025712 | 54 | 240 | 0.0 | 0.0 | 0.02 | 0.04 | 0.40 | 55 | 1013.3 |
| 20260504025702 | 54 | 214 | 0.9 | 0.0 | 0.02 | 0.04 | 0.40 | 55 | 1013.3 |
| 20260504025212 | 53 | 288 | 0.0 | 0.0 | 0.07 | 0.04 | 0.40 | 55 | 1013.4 |
| 20260504024714 | 53 | 329 | 0.9 | 0.0 | 0.02 | 0.04 | 0.40 | 55 | 1013.4 |
| 20260504024215 | 54 | 278 | 0.0 | 0.0 | 0.02 | 0.04 | 0.40 | 55 | 1013.3 |
| 20260504023713 | 54 | 240 | 0.0 | 0.0 | 0.02 | 0.04 | 0.40 | 55 | 1013.3 |
| 20260504023213 | 54 | 214 | 0.9 | 0.0 | 0.02 | 0.04 | 0.40 | 55 | 1013.3 |
| 20260504022714 | 54 | 248 | 0.0 | 0.0 | 0.02 | 0.04 | 0.39 | 55 | 1013.4 |
| 20260504022512 | 54 | 267 | 0.0 | 0.0 | 0.02 | 0.04 | 0.36 | 54 | 1013.4 |
| 20260504022503 | 55 | 267 | 0.0 | 0.0 | 0.02 | 0.04 | 0.35 | 54 | 1013.4 |
| 20260504022457 | 55 | 267 | 0.0 | 0.0 | 0.02 | 0.04 | 0.34 | 54 | 1013.3 |
| 20260504022211 | 54 | 195 | 0.0 | 0.0 | 0.02 | 0.04 | 0.39 | 55 | 1013.4 |
| 20260504021712 | 54 | 243 | 0.0 | 0.0 | 0.02 | 0.04 | 0.38 | 54 | 1013.4 |
| 20260504021213 | 54 | 243 | 0.9 | 0.0 | 0.02 | 0.04 | 0.37 | 54 | 1013.4 |
| 20260504020710 | 54 | 267 | 0.0 | 0.0 | 0.02 | 0.04 | 0.36 | 54 | 1013.4 |
| 20260504020211 | 55 | 267 | 0.0 | 0.0 | 0.02 | 0.04 | 0.35 | 54 | 1013.4 |
| 20260504015712 | 55 | 267 | 0.0 | 0.0 | 0.02 | 0.04 | 0.34 | 54 | 1013.3 |
| 20260504015310 | 56 | 212 | 0.0 | 0.0 | 0.01 | 0.04 | 0.31 | 52 | 1013.2 |
| 20260504015302 | 56 | 212 | 0.0 | 0.0 | 0.01 | 0.04 | 0.31 | 52 | 1013.1 |
| 20260504015254 | 56 | 276 | 0.0 | 0.0 | 0.01 | 0.04 | 0.31 | 52 | 1013.1 |
| 20260504015210 | 55 | 246 | 0.0 | 0.0 | 0.02 | 0.04 | 0.33 | 53 | 1013.4 |
| 20260504014711 | 55 | 229 | 0.0 | 0.0 | 0.01 | 0.04 | 0.33 | 53 | 1013.4 |
| 20260504014212 | 55 | 184 | 0.0 | 0.0 | 0.01 | 0.04 | 0.32 | 52 | 1013.4 |
| 20260504013811 | 55 | 322 | 0.0 | 0.0 | 0.01 | 0.04 | 0.31 | 52 | 1013.3 |
| 20260504013708 | 55 | 322 | 0.0 | 0.0 | 0.01 | 0.04 | 0.31 | 52 | 1013.3 |
| 20260504013209 | 56 | 212 | 0.0 | 0.0 | 0.01 | 0.04 | 0.31 | 52 | 1013.2 |
| 20260504012710 | 56 | 212 | 0.0 | 0.0 | 0.01 | 0.04 | 0.31 | 52 | 1013.1 |
| 20260504012207 | 56 | 276 | 0.0 | 0.0 | 0.01 | 0.04 | 0.31 | 52 | 1013.1 |
| 20260504012058 | 57 | 232 | 0.0 | 0.9 | 0.01 | 0.04 | 0.31 | 50 | 1012.7 |
| 20260504011708 | 56 | 276 | 0.0 | 0.0 | 0.01 | 0.04 | 0.31 | 52 | 1013.0 |
| 20260504011209 | 56 | 276 | 0.0 | 0.0 | 0.01 | 0.04 | 0.31 | 51 | 1012.9 |
| 20260504010706 | 56 | 269 | 0.0 | 0.0 | 0.01 | 0.04 | 0.31 | 51 | 1012.8 |
| 20260504010206 | 57 | 200 | 0.0 | 0.0 | 0.01 | 0.04 | 0.31 | 51 | 1012.8 |
| 20260504005706 | 57 | 200 | 0.0 | 0.0 | 0.01 | 0.04 | 0.31 | 50 | 1012.7 |
| 20260504005202 | 57 | 232 | 0.0 | 0.9 | 0.01 | 0.04 | 0.31 | 50 | 1012.7 |
| 20260504004905 | 57 | 210 | 0.0 | 0.0 | 0.07 | 0.04 | 0.31 | 49 | 1012.6 |
| 20260504004857 | 58 | 210 | 0.0 | 0.0 | 0.07 | 0.04 | 0.31 | 49 | 1012.5 |
| 20260504004703 | 57 | 210 | 0.0 | 0.0 | 0.07 | 0.04 | 0.31 | 49 | 1012.6 |
| 20260504004204 | 57 | 210 | 0.0 | 0.0 | 0.07 | 0.04 | 0.31 | 49 | 1012.6 |
| 20260504003701 | 58 | 210 | 0.0 | 0.0 | 0.07 | 0.04 | 0.31 | 49 | 1012.5 |
| 20260504003154 | 58 | 210 | 0.0 | 0.0 | 0.07 | 0.04 | 0.31 | 48 | 1012.4 |
| 20260504003146 | 58 | 271 | 0.0 | 0.0 | 0.07 | 0.04 | 0.31 | 47 | 1012.4 |
| 20260504002659 | 58 | 210 | 0.0 | 0.0 | 0.07 | 0.04 | 0.31 | 48 | 1012.4 |
| 20260504002155 | 58 | 271 | 0.0 | 0.0 | 0.07 | 0.04 | 0.31 | 47 | 1012.4 |
| 20260504001656 | 58 | 271 | 0.0 | 0.0 | 0.07 | 0.04 | 0.31 | 47 | 1012.3 |
| 20260504001156 | 58 | 271 | 0.0 | 0.0 | 0.07 | 0.04 | 0.31 | 46 | 1012.2 |
| 20260504000652 | 59 | 271 | 0.0 | 0.0 | 0.07 | 0.04 | 0.31 | 46 | 1012.2 |
| 20260504000153 | 59 | 242 | 0.0 | 0.0 | 0.07 | 0.04 | 0.31 | 45 | 1012.1 |
| 20260503235821 | 59 | 228 | 0.0 | 0.0 | 0.07 | 0.04 | 0.30 | 44 | 1012.1 |
| 20260503235818 | 59 | 228 | 0.0 | 0.0 | 0.07 | 0.04 | 0.30 | 44 | 1011.9 |
| 20260503235654 | 59 | 228 | 0.0 | 0.0 | 0.07 | 0.04 | 0.30 | 44 | 1012.1 |
| 20260503235228 | 59 | 228 | 0.0 | 0.0 | 0.07 | 0.04 | 0.30 | 44 | 1011.9 |
| 20260503235151 | 59 | 228 | 0.0 | 0.0 | 0.07 | 0.04 | 0.30 | 44 | 1011.9 |
| 20260503234652 | 59 | 228 | 0.0 | 0.0 | 0.03 | 0.04 | 0.30 | 43 | 1012.0 |
| 20260503234453 | 60 | 228 | 0.0 | 0.0 | 0.03 | 0.04 | 0.27 | 41 | 1011.9 |
| 20260503234153 | 59 | 228 | 0.0 | 0.0 | 0.03 | 0.04 | 0.30 | 43 | 1011.9 |
| 20260503233650 | 60 | 228 | 0.0 | 0.0 | 0.03 | 0.04 | 0.30 | 42 | 1011.9 |
| 20260503233151 | 60 | 228 | 0.0 | 0.0 | 0.03 | 0.04 | 0.30 | 42 | 1011.8 |
| 20260503232652 | 60 | 228 | 0.0 | 0.0 | 0.03 | 0.04 | 0.30 | 41 | 1011.8 |
| 20260503232148 | 60 | 228 | 0.0 | 0.0 | 0.03 | 0.04 | 0.29 | 41 | 1011.8 |
| 20260503231649 | 60 | 228 | 0.0 | 0.0 | 0.03 | 0.04 | 0.27 | 41 | 1011.9 |
| 20260503231150 | 60 | 228 | 0.0 | 0.0 | 0.03 | 0.04 | 0.27 | 41 | 1011.8 |
| 20260503230647 | 61 | 194 | 0.0 | 0.0 | 0.03 | 0.04 | 0.25 | 41 | 1011.7 |
| 20260503230148 | 61 | 309 | 0.0 | 0.0 | 0.03 | 0.04 | 0.24 | 40 | 1011.7 |
| 20260503225930 | 61 | 309 | 0.0 | 0.0 | 0.03 | 0.04 | 0.24 | 40 | 1011.7 |
| 20260503225649 | 61 | 309 | 0.0 | 0.0 | 0.03 | 0.04 | 0.24 | 40 | 1011.7 |
| 20260503225145 | 61 | 298 | 0.0 | 0.0 | 0.03 | 0.04 | 0.23 | 39 | 1011.6 |
| 20260503224646 | 61 | 291 | 0.9 | 3.5 | 0.07 | 0.04 | 0.22 | 39 | 1011.7 |
| 20260503224347 | 61 | 301 | 0.0 | 0.0 | 0.07 | 0.04 | 0.22 | 39 | 1011.7 |
| 20260503224147 | 61 | 301 | 0.0 | 0.0 | 0.07 | 0.04 | 0.22 | 39 | 1011.7 |
| 20260503224057 | 62 | 342 | 0.0 | 0.9 | 0.07 | 0.04 | 0.21 | 38 | 1011.5 |
| 20260503223644 | 61 | 278 | 0.0 | 0.9 | 0.07 | 0.04 | 0.22 | 38 | 1011.6 |
| 20260503223145 | 62 | 295 | 0.0 | 0.0 | 0.07 | 0.04 | 0.22 | 39 | 1011.6 |
| 20260503222646 | 62 | 295 | 0.9 | 0.0 | 0.07 | 0.04 | 0.22 | 39 | 1011.6 |
| 20260503222347 | 62 | 7 | 0.0 | 0.0 | 0.07 | 0.04 | 0.21 | 39 | 1011.5 |
| 20260503222142 | 62 | 7 | 0.0 | 0.0 | 0.07 | 0.04 | 0.21 | 39 | 1011.5 |
| 20260503221643 | 62 | 342 | 0.0 | 0.0 | 0.07 | 0.04 | 0.21 | 39 | 1011.6 |
| 20260503221607 | 62 | 342 | 0.0 | 0.9 | 0.07 | 0.04 | 0.21 | 38 | 1011.5 |
| 20260503221144 | 62 | 342 | 0.0 | 0.9 | 0.07 | 0.04 | 0.21 | 38 | 1011.5 |
| 20260503220932 | 62 | 293 | 0.0 | 0.0 | 0.07 | 0.04 | 0.21 | 38 | 1011.5 |
| 20260503220903 | 63 | 309 | 0.9 | 2.6 | 0.00 | 0.04 | 0.20 | 37 | 1011.4 |
| 20260503220854 | 63 | 343 | 0.9 | 0.9 | 0.00 | 0.04 | 0.19 | 37 | 1011.4 |
| 20260503220641 | 62 | 293 | 0.0 | 0.0 | 0.07 | 0.04 | 0.21 | 38 | 1011.5 |
| 20260503220408 | 62 | 264 | 0.0 | 0.0 | 0.07 | 0.04 | 0.21 | 37 | 1011.5 |
| 20260503220142 | 62 | 264 | 0.0 | 0.0 | 0.07 | 0.04 | 0.21 | 37 | 1011.5 |
| 20260503220106 | 62 | 288 | 0.0 | 0.0 | 0.07 | 0.04 | 0.20 | 37 | 1011.6 |
| 20260503215643 | 62 | 288 | 0.0 | 0.0 | 0.07 | 0.04 | 0.20 | 37 | 1011.6 |
| 20260503215542 | 62 | 10 | 0.9 | 0.9 | 0.07 | 0.04 | 0.20 | 37 | 1011.5 |
| 20260503215139 | 62 | 10 | 0.9 | 0.9 | 0.07 | 0.04 | 0.20 | 37 | 1011.5 |
| 20260503214640 | 63 | 309 | 0.9 | 2.6 | 0.00 | 0.04 | 0.20 | 37 | 1011.4 |
| 20260503214539 | 63 | 343 | 0.9 | 0.9 | 0.00 | 0.04 | 0.19 | 37 | 1011.4 |
| 20260503214141 | 63 | 343 | 0.9 | 0.9 | 0.00 | 0.04 | 0.19 | 37 | 1011.4 |
| 20260503213654 | 64 | 323 | 0.9 | 0.0 | 0.00 | 0.04 | 0.13 | 37 | 1011.4 |
| 20260503213638 | 63 | 37 | 1.7 | 0.0 | 0.00 | 0.04 | 0.18 | 38 | 1011.4 |
| 20260503213601 | 63 | 191 | 1.7 | 1.7 | 0.00 | 0.04 | 0.18 | 37 | 1011.3 |
| 20260503213138 | 63 | 191 | 1.7 | 1.7 | 0.00 | 0.04 | 0.18 | 37 | 1011.3 |
| 20260503212639 | 63 | 312 | 0.0 | 2.6 | 0.00 | 0.04 | 0.16 | 37 | 1011.4 |
| 20260503212136 | 64 | 314 | 0.9 | 0.9 | 0.00 | 0.04 | 0.14 | 37 | 1011.4 |
| 20260503211637 | 64 | 359 | 0.9 | 1.7 | 0.00 | 0.04 | 0.13 | 36 | 1011.3 |
| 20260503211138 | 64 | 323 | 0.9 | 0.0 | 0.00 | 0.04 | 0.13 | 37 | 1011.4 |
| 20260503210717 | 64 | 359 | 0.9 | 2.6 | 0.00 | 0.04 | 0.13 | 37 | 1011.3 |
| 20260503210634 | 64 | 359 | 0.9 | 2.6 | 0.00 | 0.04 | 0.13 | 37 | 1011.3 |
| 20260503210458 | 64 | 229 | 2.6 | 1.7 | 0.00 | 0.04 | 0.13 | 37 | 1011.3 |
| 20260503210135 | 64 | 319 | 0.0 | 0.0 | 0.00 | 0.04 | 0.13 | 37 | 1011.3 |
| 20260503205636 | 64 | 316 | 0.9 | 0.0 | 0.00 | 0.04 | 0.13 | 37 | 1011.4 |
| 20260503205133 | 64 | 308 | 0.0 | 0.0 | 0.00 | 0.04 | 0.13 | 37 | 1011.2 |